Location: Bihucourt
(50.1235°N, 2.7980°E)
Time: 11:59:01
(UTC+00:00)

Daily predictions for brighter satellites

Satellite Brightness Start Highest point End
(mag) Time Altitude Azimuth Time Altitude Azimuth Time Altitude Azimuth
NOSS 3-1 (C) 4.1 17:03:11 10° NW 17:10:30 85° NE 17:19:07 10° SE
NOAA 11 4.2 17:05:16 10° SSE 17:10:45 77° ENE 17:16:16 10° NNW
AQUARIUS 4.2 17:07:03 10° SSE 17:11:33 85° ENE 17:16:05 10° NNW
COSMO-SKYMED 1 3.7 17:09:27 10° NE 17:13:04 25° E 17:16:39 10° SSE
BREEZE-M DEB (TANK) 1.7 17:12:03 10° W 17:14:33 82° S 17:16:50 10° E
Aureole 3 2.6 17:13:16 10° N 17:16:23 61° ENE 17:19:19 10° SSE
Cosmos 1937 Rocket 4.4 17:11:55 10° SSE 17:16:31 31° E 17:21:09 10° NE
Okean 1-7 Rocket 3.6 17:13:56 10° S 17:18:30 81° E 17:23:06 10° NNE
USA 290 3.2 17:17:35 10° N 17:20:20 26° ENE 17:23:04 10° ESE
NOSS 2-1 (C) 3.3 17:20:44 10° SSW 17:23:56 46° SE 17:27:18 10° NE
Cosmos 1833 Rocket 2.9 17:18:38 10° NNW 17:24:05 48° NE 17:29:32 10° SE
H-2A R/B 2.8 17:24:50 10° ESE 17:29:16 31° ENE 17:33:49 10° N
NOSS 2-1 (D) 3.1 17:26:36 10° SSW 17:29:51 53° SE 17:33:06 11° NE
Meteor 1-21 Rocket 4.2 17:24:39 10° S 17:30:07 67° E 17:35:42 10° NNE
Cosmos 2344 4.3 17:21:20 10° NW 17:30:13 73° NE 17:42:35 10° SE
H-2A R/B 2.0 17:26:05 10° NNE 17:30:30 81° ESE 17:34:48 10° SSW
Cosmos 1939 Rocket 2.8 17:27:16 10° SSE 17:31:19 69° ENE 17:35:20 10° N
Helios 1A Rocket 4.1 17:28:37 10° ESE 17:31:49 22° ENE 17:35:01 10° N
USA 229 DEB 3.9 17:24:45 10° NW 17:32:02 84° NE 17:39:43 10° SE
USA 229 3.9 17:24:51 10° NW 17:32:08 84° NE 17:39:50 10° SE
CZ-3B R/B 1.6 17:31:21 10° WNW 17:33:42 89° NE 17:39:46 10° ESE
Cosmos 44 3.4 17:29:04 10° SW 17:33:55 83° SE 17:39:08 10° NE
Cosmos 1602 Rocket 3.8 17:30:07 10° SSE 17:34:18 48° E 17:38:33 10° NNE
SeaSat 1 3.4 17:29:40 10° NNE 17:34:24 47° NW 17:39:06 10° WSW
Cosmos 2026 Rocket 4.3 17:29:56 10° SSE 17:35:41 43° E 17:41:33 10° NNE
Feng Yun 1-1 Rocket 4.2 17:31:16 10° SSE 17:36:43 68° ENE 17:42:21 10° NNW
Cosmos 2112 Rocket 4.2 17:31:38 10° NNW 17:36:53 79° WSW 17:42:04 10° SSE
SJ 16-02 1.9 17:32:54 10° SW 17:37:15 59° WNW 17:41:36 10° NNE
Cosmos 990 Rocket 3.9 17:35:33 10° SSW 17:40:43 73° ESE 17:45:54 10° NNE
YAOGAN 1 3.2 17:36:51 10° SE 17:40:44 33° ENE 17:44:38 10° N
Cosmos 1689 Rocket 4.0 17:41:34 13° ESE 17:41:34 13° ESE 17:42:31 10° SE
Cosmos 1553 Rocket 4.5 17:35:03 10° N 17:41:02 39° ENE 17:46:54 10° SE
Aureole 3 Rocket 2.8 17:39:00 10° N 17:42:05 43° ENE 17:45:48 10° SSE
Cosmos 1844 Rocket 3.2 17:36:50 10° SW 17:42:26 60° NW 17:48:02 10° NNE
H-2A R/B 4.1 17:38:52 10° SSW 17:42:47 39° W 17:46:54 10° NNW
COSMOS 2406 3.2 17:37:44 10° NNW 17:43:33 72° ENE 17:49:18 10° SE
Cosmos 2082 Rocket 2.6 17:38:26 10° NNW 17:43:51 41° NE 17:49:13 10° ESE
Cosmos 1818 4.3 17:38:47 10° WSW 17:44:06 52° NW 17:49:28 10° NE
Cosmos 1844 4.1 17:40:47 10° SW 17:46:27 68° WNW 17:52:14 10° NNE
NOSS 3-1 (A) 4.1 17:40:18 10° NW 17:47:40 88° NE 17:56:18 10° SE
Cosmos 1703 3.1 17:44:25 10° S 17:48:17 76° E 17:52:11 10° NNE
X-37B 2.3 17:45:55 10° WSW 17:48:43 28° S 17:51:31 10° SE
Cosmos 1825 Rocket 4.3 17:45:38 10° SSE 17:49:27 30° E 17:53:19 10° NNE
IRS-1C Rocket 4.1 17:45:03 10° SSE 17:50:13 65° ENE 17:55:27 10° N
Cosmos 1812 Rocket 3.5 17:46:54 10° N 17:51:19 83° E 17:55:39 10° SSE
ISS -3.6 17:48:26 10° W 17:51:48 66° N 17:53:50 22° ENE
ATLAS 2AS CENTAUR R/B 4.1 17:48:15 10° WNW 17:55:02 30° N 18:00:54 12° NE
Okean O Rocket 3.0 17:51:57 10° S 17:56:10 43° W 18:00:23 10° NNW
ATLAS 5 CENTAUR R/B 3.6 17:53:57 10° WNW 17:57:18 20° NNW 18:00:57 10° NE
Iridium 4 Rocket 3.5 17:54:12 10° N 17:59:38 64° E 18:04:32 10° SSE
CZ-4 R/B 1.4 17:56:23 10° SSE 18:00:19 55° ENE 18:04:12 10° N
ERS-2 2.6 17:58:38 14° NE 18:01:21 37° E 18:04:44 10° SSE
SKYMED 2 3.5 17:57:02 10° NNE 18:01:23 71° ESE 18:05:43 10° S
Cosmos 2195 Rocket 4.5 17:56:55 10° S 18:03:15 78° E 18:09:36 10° NNE
CSL-04 Rocket 4.1 17:59:45 10° SE 18:04:50 42° ENE 18:10:01 10° N
CZ-4C R/B 3.9 18:02:31 10° NW 18:07:30 25° N 18:11:46 15° NE
S3M 4.3 18:01:49 10° N 18:07:36 41° ENE 18:13:21 10° SE
Okean-O 2.6 18:03:27 10° SSE 18:07:49 61° ENE 18:12:13 10° N
USA 234 3.7 18:05:52 18° ENE 18:10:31 49° N 18:16:46 10° WNW
Ariane Rocket 4.4 18:11:25 19° NE 18:11:25 19° NE 18:14:30 10° NNE
Cosmos 1428 Rocket 4.4 18:04:57 10° S 18:11:14 75° E 18:17:33 10° NNE
Cosmos 1340 2.8 18:08:05 10° SSW 18:11:49 74° WNW 18:15:35 10° N
Cosmos 1346 Rocket 3.0 18:08:35 10° S 18:12:20 46° E 18:15:11 16° NNE
Cosmos 2278 Rocket 2.3 18:07:07 10° S 18:12:37 54° ESE 18:17:11 15° NE
Cosmos 858 Rocket 4.5 18:09:22 10° SSW 18:14:39 84° ESE 18:19:58 10° NNE
Cosmos 1953 Rocket 4.0 18:11:55 10° SSE 18:15:53 36° E 18:17:58 22° NE
CZ-2C R/B 3.5 18:10:54 10° S 18:16:25 75° WSW 18:22:13 10° NNW
SAR-Lupe-4 3.7 18:17:50 29° NE 18:19:20 47° E 18:22:47 10° S
Cosmos 2292 Rocket 4.0 18:16:26 10° SSE 18:20:36 33° E 18:20:41 33° E
Cosmos 405 3.7 18:18:03 10° NNW 18:21:32 55° W 18:24:58 10° S
COSMOS 2455 4.4 18:16:48 10° W 18:22:02 30° NW 18:27:19 10° NNE
Cosmos 44 Rocket 4.2 18:18:33 10° S 18:22:47 29° ESE 18:23:19 28° ESE
NOSS 2-1 (E) 3.5 18:21:50 10° WSW 18:25:04 52° NW 18:26:46 26° NNE
TELKOM 3 4.1 18:26:51 10° W 18:28:35 39° SW 18:28:35 39° SW
Cosmos 1869 3.4 18:26:01 10° N 18:29:47 46° ENE 18:30:11 44° E
ARGOS 3.1 18:24:37 10° SSE 18:29:56 67° ENE 18:35:18 10° N
NOSS 2-2 (D) 4.5 18:25:44 10° NW 18:30:37 50° NE 18:33:29 30° E
Meteor 2-19 Rocket 4.4 18:25:55 10° S 18:32:05 83° E 18:38:17 10° NNE
PSLV R/B 3.8 18:28:27 10° NNE 18:32:42 76° ESE 18:36:53 10° S
SAR-Lupe-1 3.9 18:34:05 36° NNE 18:35:25 74° ESE 18:38:59 10° S
Cosmos 1898 Rocket 4.3 18:30:36 10° SW 18:35:42 51° WNW 18:40:49 10° NNE
CZ-4B R/B 2.9 18:33:12 10° N 18:36:17 36° WNW 18:39:16 10° SW
Cosmos 372 Rocket 3.9 18:31:07 10° SSW 18:36:17 73° ESE 18:39:58 20° NNE
Cosmos 468 4.4 18:31:42 10° NNW 18:36:58 69° ENE 18:41:13 16° SE
CZ-2C R/B 3.1 18:33:46 17° NE 18:37:39 41° E 18:42:55 10° SSE
Cosmos 494 Rocket 4.0 18:35:51 10° NNW 18:40:54 53° ENE 18:42:29 38° ESE
MOS 1 Rocket 3.8 18:39:58 10° N 18:44:10 54° WNW 18:48:23 10° SSW
Cosmos 2150 Rocket 4.2 18:40:40 10° S 18:45:34 46° ESE 18:45:58 45° E
Cosmos 1048 Rocket 3.8 18:40:48 10° NNW 18:45:58 79° ENE 18:49:36 20° SSE
Cosmos-2242 3.8 18:41:58 10° NNW 18:46:09 51° W 18:50:20 10° S
COSMO-SKYMED 1 3.8 18:45:17 10° N 18:49:22 40° WNW 18:53:26 10° SW
Cosmos 1937 Rocket 4.5 18:53:12 10° SW 18:58:19 46° WNW 19:03:19 11° NNE
SL-08 RB Rocket 3.5 18:59:18 29° SSE 19:01:36 89° E 19:06:07 10° NNW
CSL-04 Debris 4.4 18:58:27 10° S 19:03:49 70° WSW 19:09:14 10° NNW
Cosmos 2221 3.8 19:01:27 10° N 19:03:42 29° N 19:03:42 29° N
Helios 1A Rocket 4.0 19:02:43 10° S 19:06:42 46° W 19:10:44 10° NNW
Cosmos 389 Rocket 4.1 19:04:06 10° NNW 19:05:55 28° NNW 19:05:55 28° NNW
Cosmos 1833 Rocket 4.3 19:02:52 10° NW 19:07:52 34° WSW 19:12:51 10° S
H-2A R/B 3.1 19:03:40 10° S 19:08:31 45° W 19:13:33 10° NNW
Cosmos 1125 Rocket 4.1 19:05:07 10° S 19:08:41 40° SSE 19:08:41 40° SSE
Cosmos 1809 Rocket 4.3 19:04:39 10° S 19:10:46 77° E 19:16:57 10° NNE
Cosmos 2298 Rocket 3.9 19:07:31 10° SSW 19:12:50 81° ESE 19:13:35 66° NE
Cosmos 2266 Rocket 3.8 19:08:44 10° S 19:14:57 75° E 19:21:04 10° NNE
SJ 16-02 4.3 19:15:43 10° WNW 19:16:49 11° NW 19:17:56 10° NNW
YAOGAN 1 4.4 19:13:00 10° SSW 19:16:50 30° W 19:20:42 10° NNW
NOSS 2-2 (C) 4.3 19:13:32 10° NW 19:18:47 86° NE 19:20:07 59° SE
In-Cosmos 22 Rocket 4.2 19:18:53 10° SSW 19:24:39 83° W 19:29:34 14° N
X-37B 3.7 19:23:17 10° SW 19:23:54 12° SW 19:23:54 12° SW
Cosmos 2082 Rocket 3.3 19:22:37 10° NW 19:28:00 42° WSW 19:33:19 10° S
ISS -1.3 19:25:22 10° WNW 19:26:49 24° WNW 19:26:49 24° WNW
Cosmos 1241 Rocket 4.4 19:26:08 10° SSW 19:32:38 83° SE 19:33:16 73° ENE
CZ-4 R/B 4.3 19:33:08 10° SW 19:35:39 16° W 19:38:10 10° NW
MetOp-A 4.2 19:37:46 77° W 19:37:46 77° W 19:43:02 10° NNW
Meteor 2-21 4.5 19:34:29 10° SSW 19:40:34 78° W 19:46:46 10° N
ATLAS 5 CENTAUR R/B 3.9 19:39:56 10° NW 19:42:29 19° N 19:42:29 19° N
Cosmos 2315 Rocket 4.0 19:39:10 10° NNW 19:45:25 78° W 19:46:33 60° SSW
ATLAS 2AS CENTAUR R/B 3.8 19:41:17 10° NW 19:48:13 34° NNE 19:48:21 34° NNE
Ariane Rocket 4.2 19:51:36 34° NNW 19:51:36 34° NNW 19:54:29 10° NNW
IRS-1A Rocket 4.5 19:51:16 72° NW 19:51:16 72° NW 19:56:37 10° NNW
USA 234 3.4 19:53:13 61° N 19:53:13 61° N 19:59:29 10° WNW
Cosmos 2278 Rocket 3.6 19:51:53 10° WSW 19:57:00 33° NW 19:59:05 26° N
CZ-4C R/B 3.6 19:51:47 10° NW 19:56:57 36° N 19:56:57 36° N
USA 281 4.1 20:04:50 37° N 20:04:50 37° N 20:08:57 10° NNW
CZ-2C R/B 4.0 20:15:09 24° NNW 20:17:54 38° WNW 20:23:01 10° SW
